• In Russia
  • List of Countries
  • For 7 days
  • Water Temperature
  • Satellite Maps
  • Weather Map
  • Weather Widgets
  • user-avatar
    Login

    Hourly Weather Maseru

    Today, 16 October, Tuesday

    Time Temperature Precipitation Wind Pressure Humidity
    00:00 +15°C° 0 mm 1 mps 635 mmHg 34%
    01:00 +14°C° 0 mm 1 mps 635 mmHg 36%
    02:00 +14°C° 0 mm 1 mps 634 mmHg 37%
    03:00 +13°C° 0 mm 1 mps 634 mmHg 38%
    04:00 +12°C° 0 mm 1 mps 634 mmHg 39%
    05:00 +12°C° 0 mm 1 mps 634 mmHg 40%
    06:00 +14°C° 0 mm 1 mps 635 mmHg 34%
    07:00 +18°C° 0 mm 1 mps 636 mmHg 29%
    08:00 +20°C° 0 mm 1 mps 637 mmHg 24%
    09:00 +20°C° 0 mm 2 mps 637 mmHg 20%
    10:00 +22°C° 0 mm 3 mps 637 mmHg 17%
    11:00 +25°C° 0 mm 4 mps 638 mmHg 14%
    12:00 +25°C° 0 mm 5 mps 637 mmHg 13%
    13:00 +26°C° 0 mm 6 mps 637 mmHg 12%
    14:00 +27°C° 0 mm 6 mps 637 mmHg 12%
    15:00 +27°C° 0 mm 6 mps 636 mmHg 12%
    16:00 +26°C° 0 mm 6 mps 636 mmHg 12%
    17:00 +26°C° 0 mm 6 mps 635 mmHg 13%
    18:00 +23°C° 0 mm 5 mps 635 mmHg 15%
    19:00 +21°C° 0 mm 3 mps 635 mmHg 17%
    20:00 +19°C° 0 mm 2 mps 635 mmHg 19%
    21:00 +19°C° 0 mm 2 mps 635 mmHg 21%
    22:00 +19°C° 0 mm 1 mps 635 mmHg 22%
    23:00 +18°C° 0 mm 1 mps 635 mmHg 24%

    Tomorrow, 17 October, Wednesday

    Time Temperature Precipitation Wind Pressure Humidity
    00:00 +18°C° 0 mm 1 mps 634 mmHg 25%
    01:00 +18°C° 0 mm 1 mps 634 mmHg 27%
    02:00 +16°C° 0 mm 1 mps 634 mmHg 28%
    03:00 +16°C° 0 mm 1 mps 634 mmHg 29%
    04:00 +15°C° 0 mm 1 mps 633 mmHg 30%
    05:00 +15°C° 0 mm 1 mps 633 mmHg 32%
    06:00 +16°C° 0 mm 1 mps 634 mmHg 30%
    07:00 +18°C° 0 mm 2 mps 635 mmHg 29%
    08:00 +20°C° 0 mm 2 mps 636 mmHg 27%
    09:00 +20°C° 0 mm 3 mps 636 mmHg 26%
    10:00 +21°C° 0 mm 3 mps 636 mmHg 24%
    11:00 +22°C° 0 mm 4 mps 636 mmHg 23%
    12:00 +23°C° 0 mm 5 mps 635 mmHg 22%
    13:00 +24°C° 0 mm 6 mps 635 mmHg 22%
    14:00 +26°C° 0 mm 7 mps 635 mmHg 21%
    15:00 +24°C° 0 mm 7 mps 635 mmHg 23%
    16:00 +23°C° 0 mm 7 mps 634 mmHg 25%
    17:00 +23°C° 0 mm 6 mps 634 mmHg 27%
    18:00 +21°C° 0 mm 5 mps 634 mmHg 32%
    19:00 +19°C° 0 mm 4 mps 634 mmHg 36%
    20:00 +18°C° 0 mm 3 mps 635 mmHg 40%
    21:00 +17°C° 0 mm 2 mps 635 mmHg 44%
    22:00 +16°C° 0 mm 2 mps 635 mmHg 47%
    23:00 +15°C° 0 mm 2 mps 635 mmHg 50%

    Day after tomorrow, 18 October, Thursday

    Time Temperature Precipitation Wind Pressure Humidity
    00:00 +15°C° 0 mm 1 mps 635 mmHg 53%
    01:00 +14°C° 0 mm 1 mps 634 mmHg 57%
    02:00 +13°C° 0 mm 1 mps 634 mmHg 60%
    03:00 +12°C° 0 mm 1 mps 634 mmHg 63%
    04:00 +12°C° 0 mm 1 mps 633 mmHg 66%
    05:00 +10°C° 0 mm 0 mps 633 mmHg 68%
    06:00 +12°C° 0 mm 0 mps 634 mmHg 60%
    07:00 +15°C° 0 mm 1 mps 635 mmHg 51%
    08:00 +18°C° 0 mm 1 mps 636 mmHg 42%
    09:00 +20°C° 0 mm 1 mps 636 mmHg 34%
    10:00 +21°C° 0 mm 2 mps 636 mmHg 27%
    11:00 +24°C° 0 mm 2 mps 636 mmHg 19%
    12:00 +25°C° 0 mm 3 mps 636 mmHg 17%
    13:00 +26°C° 0 mm 3 mps 636 mmHg 15%
    14:00 +27°C° 0 mm 4 mps 635 mmHg 13%
    15:00 +27°C° 0 mm 4 mps 635 mmHg 13%
    16:00 +26°C° 0 mm 4 mps 635 mmHg 13%
    17:00 +26°C° 0 mm 4 mps 634 mmHg 13%
    18:00 +24°C° 0 mm 3 mps 634 mmHg 14%
    19:00 +21°C° 0 mm 3 mps 634 mmHg 16%
    20:00 +19°C° 0 mm 2 mps 634 mmHg 18%
    21:00 +19°C° 0 mm 1 mps 634 mmHg 20%
    22:00 +18°C° 0 mm 1 mps 634 mmHg 21%
    23:00 +16°C° 0 mm 0 mps 634 mmHg 23%

    19 October, Friday

    Time Temperature Precipitation Wind Pressure Humidity
    00:00 +15°C° 0 mm 0 mps 634 mmHg 23%
    01:00 +14°C° 0 mm 0 mps 633 mmHg 24%
    02:00 +14°C° 0 mm 0 mps 633 mmHg 24%
    03:00 +14°C° 0 mm 0 mps 633 mmHg 24%
    04:00 +14°C° 0 mm 1 mps 633 mmHg 24%
    05:00 +14°C° 0 mm 1 mps 633 mmHg 23%
    06:00 +18°C° 0 mm 1 mps 634 mmHg 20%
    07:00 +21°C° 0 mm 1 mps 636 mmHg 18%
    08:00 +24°C° 0 mm 1 mps 637 mmHg 15%
    09:00 +25°C° 0 mm 1 mps 637 mmHg 14%
    10:00 +27°C° 0 mm 2 mps 637 mmHg 14%
    11:00 +28°C° 0 mm 2 mps 637 mmHg 14%
    12:00 +29°C° 0 mm 3 mps 637 mmHg 13%
    13:00 +30°C° 0 mm 4 mps 636 mmHg 13%
    14:00 +32°C° 0 mm 4 mps 636 mmHg 12%
    15:00 +32°C° 0 mm 5 mps 636 mmHg 12%
    16:00 +32°C° 0 mm 5 mps 636 mmHg 13%
    17:00 +32°C° 0 mm 5 mps 635 mmHg 13%
    18:00 +29°C° 0 mm 4 mps 635 mmHg 15%
    19:00 +27°C° 0 mm 3 mps 635 mmHg 17%
    20:00 +25°C° 0 mm 2 mps 634 mmHg 20%
    21:00 +24°C° 0 mm 2 mps 634 mmHg 20%
    22:00 +24°C° 0 mm 2 mps 634 mmHg 20%
    23:00 +23°C° 0 mm 2 mps 634 mmHg 21%

    20 October, Saturday

    Time Temperature Precipitation Wind Pressure Humidity
    00:00 +21°C° 0 mm 2 mps 633 mmHg 23%
    01:00 +21°C° 0 mm 1 mps 633 mmHg 25%
    02:00 +20°C° 0 mm 1 mps 632 mmHg 28%
    03:00 +20°C° 0 mm 1 mps 633 mmHg 33%
    04:00 +19°C° 0 mm 1 mps 633 mmHg 38%
    05:00 +18°C° 0 mm 2 mps 633 mmHg 43%
    06:00 +19°C° 0 mm 2 mps 634 mmHg 43%
    07:00 +20°C° 0 mm 3 mps 635 mmHg 44%
    08:00 +21°C° 0 mm 4 mps 635 mmHg 45%
    09:00 +22°C° 0 mm 5 mps 636 mmHg 37%
    10:00 +23°C° 0 mm 7 mps 636 mmHg 30%
    11:00 +24°C° 0 mm 8 mps 637 mmHg 22%
    12:00 +24°C° 0 mm 9 mps 637 mmHg 19%
    13:00 +24°C° 0 mm 10 mps 636 mmHg 15%
    14:00 +24°C° 0 mm 10 mps 636 mmHg 12%
    15:00 +22°C° 0 mm 10 mps 637 mmHg 14%
    16:00 +19°C° 0 mm 10 mps 637 mmHg 16%
    17:00 +18°C° 0 mm 9 mps 637 mmHg 18%
    18:00 +16°C° 0 mm 9 mps 637 mmHg 23%
    19:00 +12°C° 0 mm 8 mps 637 mmHg 29%
    20:00 +10°C° 0 mm 8 mps 637 mmHg 35%
    21:00 +9°C° 0 mm 7 mps 637 mmHg 36%
    22:00 +8°C° 0 mm 7 mps 638 mmHg 38%
    23:00 +7°C° 0 mm 6 mps 638 mmHg 40%

    21 October, Sunday

    Time Temperature Precipitation Wind Pressure Humidity
    00:00 +5°C° 0 mm 6 mps 638 mmHg 41%
    01:00 +5°C° 0 mm 6 mps 638 mmHg 42%
    02:00 +5°C° 0 mm 6 mps 638 mmHg 43%
    03:00 +5°C° 0 mm 5 mps 638 mmHg 44%
    04:00 +5°C° 0 mm 4 mps 638 mmHg 45%
    05:00 +4°C° 0 mm 3 mps 639 mmHg 46%
    06:00 +5°C° 0 mm 4 mps 639 mmHg 40%
    07:00 +7°C° 0 mm 4 mps 640 mmHg 34%
    08:00 +8°C° 0 mm 4 mps 640 mmHg 28%
    09:00 +11°C° 0 mm 4 mps 641 mmHg 22%
    10:00 +14°C° 0 mm 4 mps 641 mmHg 17%
    11:00 +17°C° 0 mm 4 mps 641 mmHg 12%
    12:00 +18°C° 0 mm 4 mps 641 mmHg 10%
    13:00 +19°C° 0 mm 5 mps 641 mmHg 9%
    14:00 +20°C° 0 mm 5 mps 641 mmHg 7%
    15:00 +20°C° 0 mm 5 mps 641 mmHg 8%
    16:00 +20°C° 0 mm 5 mps 640 mmHg 8%
    17:00 +19°C° 0 mm 5 mps 640 mmHg 8%
    18:00 +17°C° 0 mm 4 mps 640 mmHg 10%
    19:00 +14°C° 0 mm 4 mps 640 mmHg 12%
    20:00 +12°C° 0 mm 3 mps 640 mmHg 14%
    21:00 +11°C° 0 mm 3 mps 640 mmHg 17%
    22:00 +10°C° 0 mm 3 mps 640 mmHg 20%
    23:00 +8°C° 0 mm 2 mps 640 mmHg 23%
    Show more